sat.trackr.live / text

‹ back to catalog

COSMOS 2390

NORAD 27464 · 2002-036A

PAYLOAD ACTIVE UNKNOWN

§ Identity

Operator
Country
CIS
Launch date
2002-07-08
Launch site
PLMSC
Launch vehicle
Mass (kg)
RCS (m²)
0.88

External: N2YO · Heavens-Above · Gunter

§ Orbital elements

Epoch: 2026-05-25T03:10:10.790976Z

Period
115.70 min
Inclination
82.4859°
Eccentricity
0.0024940
Mean motion
12.44622027 rev/d
Perigee alt
1,467.5 km
Apogee alt
1,506.7 km
Semi-major
7,865.2 km
B*
-1.2030e-4
RAAN
359.3744°
Arg perigee
310.9026°
Mean anomaly
48.9894°
Rev number
8,480

§ Raw data

COSMOS 23901 27464U 02036A   26145.13206934 -.00000007  00000+0 -12030-3 0  99972 27464  82.4859 359.3744 0024940 310.9026  48.9894 12.44622027 84808

JSON: /api/v1/satellites/27464 · /tle

For live sub-satellite position, see the globe view (requires WebGL).

§ Visibility from observer

Set your observer location to see the next 7 days of passes ≥ 10°. The values pass through the URL so the page stays shareable.

No JS? Fill the form by hand. The geolocation button needs JavaScript.